Location: Azul
(36.7830°S, 59.8500°W)
Time: 08:17:05
(UTC-03:00)

ISS - Pass Details

Date: 26 May 2020
Orbit: 417 x 419 km, 51.6° (Epoch: 31 May)

Event Time Altitude Azimuth Distance (km) Brightness Sun altitude
Exits shadow 06:24:49 25° 182° (S) 917 -2.2 -18.7°
Drops below altitude 10° 06:26:54 10° 150° (SSE) 1,527 -0.7 -18.2°
Sets 06:29:12 0° 138° (SE) 2,397 0.5 -17.8°
